Phuket, Thailand

7:59 AM +07 on July 23, 2017 (GMT +0700)
Phuket International

Weather History for VTSP - June, 2013

Change the Weather History Date:

Saturday, June 1, 2013

  Actual Average Record
Temperature  
Mean Temperature 83 °F -  
Max Temperature 90 °F 88 °F 95 °F (1998)
Min Temperature 76 °F 77 °F 74 °F (2015)
Cooling Degree Days 18    
Growing Degree Days 33 (Base 50)    
Moisture  
Dew Point 75 °F    
Average Humidity 75    
Maximum Humidity 89    
Minimum Humidity 62    
Precipitation  
Precipitation 0.55 in 0.38 in - ()
Sea Level Pressure  
Sea Level Pressure 29.77 in    
Wind  
Wind Speed 4 mph ()    
Max Wind Speed 17 mph    
Max Gust Speed -    
Visibility 5.9 miles    
Events Rain    
Averages and records for this station are not official NWS values.
T = Trace of Precipitation, MM = Missing Value Source: Averaged Metar Reports

Daily Weather History Graph

Daily Weather History Graph

Search for Another Location

Airport or City:

Trip Planner

Search our weather history database for the weather conditions in past years. The results will help you decide how hot, cold, wet, or windy it might be!

Date:

Astronomy

Jun. 01, 2013 Rise Set
Actual Time 6:07 AM +07 6:41 PM +07
Civil Twilight 5:44 AM +07 7:04 PM +07
Nautical Twilight 5:18 AM +07 7:30 PM +07
Astronomical Twilight 4:51 AM +07 7:57 PM +07
Moon 12:29 AM +07 (6/1) 12:49 PM +07 (6/1)
Length of Visible Light 13h 19m
Length of Day
12h 33m
Last Quarter, 46% of the Moon is Illuminated
Jun 1
Last Quarter
Jun 8
New
Jun 17
First Quarter
Jun 23
Full
Jun 30
Last Quarter

Hourly Weather History & Observations

Time (+07) Temp. Heat Index Dew Point Humidity Pressure Visibility Wind Dir Wind Speed Gust Speed Precip Events Conditions
12:00 AM 80.6 °F 86.2 °F 75.2 °F 84% 29.83 in 6.2 mi Calm Calm - N/A   Scattered Clouds
12:30 AM 78.8 °F - 75.2 °F 89% 29.83 in 6.2 mi Calm Calm - N/A   Mostly Cloudy
1:00 AM 81 °F - 78 °F 86% 29.78 in 6 mi Calm Calm - -   Scattered Clouds
1:00 AM 78.8 °F - 75.2 °F 89% 29.80 in 6.2 mi Calm Calm - N/A   Mostly Cloudy
1:30 AM 78.8 °F - 75.2 °F 89% 29.80 in 6.2 mi Calm Calm - N/A   Mostly Cloudy
2:00 AM 78.8 °F - 75.2 °F 89% 29.80 in 6.2 mi Calm Calm - N/A   Mostly Cloudy
2:30 AM 78.8 °F - 75.2 °F 89% 29.80 in 6.2 mi Calm Calm - N/A   Mostly Cloudy
3:00 AM 78.8 °F - 75.2 °F 89% 29.77 in 6.2 mi Variable 1.2 mph - N/A   Mostly Cloudy
3:30 AM 78.8 °F - 75.2 °F 89% 29.77 in 6.2 mi Calm Calm - N/A   Mostly Cloudy
4:00 AM 78.8 °F - 75.2 °F 89% 29.77 in 6.2 mi Calm Calm - N/A   Mostly Cloudy
4:30 AM 80.6 °F 86.2 °F 75.2 °F 84% 29.74 in 6.2 mi NW 5.8 mph - N/A   Mostly Cloudy
5:00 AM 80.6 °F 86.2 °F 75.2 °F 84% 29.74 in 6.2 mi NW 4.6 mph - N/A   Mostly Cloudy
5:30 AM 80.6 °F 86.2 °F 75.2 °F 84% 29.77 in 6.2 mi NNW 4.6 mph - N/A   Mostly Cloudy
6:00 AM 80.6 °F 86.2 °F 75.2 °F 84% 29.77 in 6.2 mi North 4.6 mph - N/A   Mostly Cloudy
6:30 AM 80.6 °F 86.2 °F 75.2 °F 84% 29.77 in 6.2 mi Variable 1.2 mph - N/A   Mostly Cloudy
7:00 AM 82 °F - 78 °F 83% 29.75 in 6 mi Calm Calm - -   Scattered Clouds
7:00 AM 80.6 °F 86.2 °F 75.2 °F 84% 29.77 in 6.2 mi Calm Calm - N/A   Mostly Cloudy
7:30 AM 84.2 °F 92.3 °F 75.2 °F 74% 29.80 in 6.2 mi Variable 1.2 mph - N/A   Mostly Cloudy
8:00 AM 84.2 °F 92.3 °F 75.2 °F 74% 29.80 in 6.2 mi Variable 2.3 mph - N/A   Mostly Cloudy
8:30 AM 86.0 °F 95.1 °F 75.2 °F 70% 29.80 in 6.2 mi North 3.5 mph - N/A   Mostly Cloudy
9:00 AM 86.0 °F 95.1 °F 75.2 °F 70% 29.80 in 6.2 mi WNW 3.5 mph - N/A   Mostly Cloudy
9:30 AM 84.2 °F 92.3 °F 75.2 °F 74% 29.80 in 6.2 mi West 8.1 mph - N/A   Mostly Cloudy
10:00 AM 87.8 °F 97.6 °F 75.2 °F 66% 29.80 in 6.2 mi West 5.8 mph - N/A   Scattered Clouds
10:30 AM 87.8 °F 95.6 °F 73.4 °F 62% 29.80 in 6.2 mi WNW 9.2 mph - N/A   Scattered Clouds
11:00 AM 87.8 °F 95.6 °F 73.4 °F 62% 29.77 in 6.2 mi WNW 9.2 mph - N/A   Scattered Clouds
11:30 AM 87.8 °F 97.6 °F 75.2 °F 66% 29.77 in 6.2 mi WNW 9.2 mph - N/A   Scattered Clouds
12:00 PM 87.8 °F 97.6 °F 75.2 °F 66% 29.77 in 6.2 mi WNW 10.4 mph - N/A   Scattered Clouds
12:30 PM 87.8 °F 95.6 °F 73.4 °F 62% 29.77 in 6.2 mi West 12.7 mph - N/A   Scattered Clouds
1:00 PM 88 °F - 77 °F 64% 29.73 in 6 mi West 5.8 mph - -   Scattered Clouds
1:00 PM 87.8 °F 97.6 °F 75.2 °F 66% 29.74 in 6.2 mi West 12.7 mph - N/A   Scattered Clouds
1:30 PM 87.8 °F 97.6 °F 75.2 °F 66% 29.74 in 6.2 mi West 12.7 mph - N/A   Mostly Cloudy
2:00 PM 89.6 °F 99.8 °F 75.2 °F 62% 29.74 in 6.2 mi West 13.8 mph - N/A   Mostly Cloudy
2:30 PM 87.8 °F 97.6 °F 75.2 °F 66% 29.71 in 6.2 mi West 13.8 mph - N/A   Mostly Cloudy
3:00 PM 87.8 °F 97.6 °F 75.2 °F 66% 29.71 in 5.6 mi West 15.0 mph - N/A   Mostly Cloudy
3:30 PM 87.8 °F 97.6 °F 75.2 °F 66% 29.71 in 5.6 mi West 13.8 mph - N/A   Mostly Cloudy
4:00 PM 87.8 °F 97.6 °F 75.2 °F 66% 29.68 in 5.6 mi West 12.7 mph - N/A   Mostly Cloudy
4:30 PM 86.0 °F 95.1 °F 75.2 °F 70% 29.71 in 5.6 mi WNW 10.4 mph - N/A   Mostly Cloudy
5:00 PM 86.0 °F 95.1 °F 75.2 °F 70% 29.71 in 5.6 mi West 13.8 mph - N/A   Mostly Cloudy
5:30 PM 84.2 °F 92.3 °F 75.2 °F 74% 29.71 in 5.6 mi West 11.5 mph - N/A   Mostly Cloudy
6:00 PM 84.2 °F 92.3 °F 75.2 °F 74% 29.71 in 5.6 mi West 15.0 mph - N/A   Mostly Cloudy
6:30 PM 84.2 °F 92.3 °F 75.2 °F 74% 29.74 in 5.6 mi West 10.4 mph - N/A   Mostly Cloudy
7:00 PM 86 °F - 77 °F 68% 29.70 in 6 mi Calm Calm - -   Scattered Clouds
7:00 PM 84.2 °F 90.9 °F 73.4 °F 70% 29.74 in 5.6 mi WNW 10.4 mph - N/A   Mostly Cloudy
7:30 PM 84.2 °F 90.9 °F 73.4 °F 70% 29.74 in 5.6 mi West 11.5 mph - N/A   Mostly Cloudy
8:00 PM 84.2 °F 90.9 °F 73.4 °F 70% 29.77 in 5.6 mi WNW 10.4 mph - N/A   Mostly Cloudy
8:30 PM 84.2 °F 92.3 °F 75.2 °F 74% 29.77 in 6.2 mi WNW 9.2 mph - N/A   Scattered Clouds
9:00 PM 84.2 °F 90.9 °F 73.4 °F 70% 29.80 in 6.2 mi WNW 10.4 mph - N/A   Scattered Clouds
9:30 PM 84.2 °F 92.3 °F 75.2 °F 74% 29.80 in 6.2 mi WNW 9.2 mph - N/A   Mostly Cloudy
10:00 PM 82.4 °F 89.5 °F 75.2 °F 79% 29.80 in 6.2 mi NW 8.1 mph - N/A   Mostly Cloudy
10:30 PM 82.4 °F 89.5 °F 75.2 °F 79% 29.80 in 6.2 mi WNW 9.2 mph - N/A   Mostly Cloudy
11:00 PM 84.2 °F 92.3 °F 75.2 °F 74% 29.80 in 5.0 mi WNW 17.3 mph - N/A Rain Rain
11:30 PM 77.0 °F - 73.4 °F 89% 29.83 in 0.9 mi WNW 13.8 mph - N/A Rain Rain